Regional Weather Roundup
Issued by NWS Huntsville, AL

Home | Current Version | Previous Version | Text Only | Print | Product List | Glossary On
Versions: 1 2 3 4 5 6 7 8 9 10 11 12 13 14 15 16 17 18 19 20 21 22 23 24 25 26 27 28 29 30 31 32 33 34 35 36 37 38 39 40 41 42 43 44 45 46 47 48 49 50
000
ASUS44 KHUN 211210
RWRHUN

WEATHER ROUNDUP FOR THE TENNESSEE VALLEY
NATIONAL WEATHER SERVICE HUNTSVILLE AL
700 AM CDT TUE OCT 21 2014

ALZ001>004-211300-
NORTHWEST ALABAMA

CITY           SKY/WX    TMP DP  RH WIND       PRES   REMARKS
COURTLAND HCN    N/A     48 N/A N/A CALM        N/A
RUSSELLVILLE     N/A     43 N/A N/A MISG        N/A
SHOALS AIRPORT CLEAR     47  44  90 CALM      30.06R
6HR MIN TEMP:  46; 6HR MAX TEMP:  49;

SHOALS TVA RES   N/A     45 N/A N/A MISG        N/A
$$

ALZ005>007-016-211300-
NORTH CENTRAL ALABAMA

CITY           SKY/WX    TMP DP  RH WIND       PRES   REMARKS
CULLMAN AG STN   N/A     45 N/A N/A CALM        N/A
DECATUR AP     CLEAR     47  45  93 CALM      30.05R
6HR MIN TEMP:  46; 6HR MAX TEMP:  49; 6HR PCP:  0.01;

HUNTSVILLE AP  PTCLDY    51  47  86 CALM      30.04S
6HR MIN TEMP:  49; 6HR MAX TEMP:  53;

MERIDIANVILLE  CLEAR     45  41  87 CALM      30.04S
VINEMONT AP    FAIR      45  45  98 CALM      30.06S
$$

ALZ008>010-211300-
NORTHEAST ALABAMA

CITY           SKY/WX    TMP DP  RH WIND       PRES   REMARKS
ALBERTVILLE    CLEAR     46  46 100 CALM      30.03S
FORT PAYNE     CLEAR     43  41  93 CALM      30.04S FOG
SCOTTSBORO AP  FOG       48  48 100 CALM      30.05S VSB<1/4
SCOTTSBORO HCN   N/A     48 N/A N/A MISG        N/A
VALLEY HEAD      N/A     43 N/A N/A MISG        N/A
$$

TNZ076-096-097-211300-
SOUTHEASTERN MIDDLE TENNESSEE

CITY           SKY/WX    TMP DP  RH WIND       PRES   REMARKS
TULLAHOMA      CLEAR     41  39  93 CALM      30.04S
WINCHESTER     CLEAR     43  43 100 CALM      30.04S
$$

...SURROUNDING SITES...

CITY           SKY/WX    TMP DP  RH WIND       PRES   REMARKS
ATLANTA        CLEAR     52  48  86 CALM      30.02R
ANNISTON       PTCLDY    45  43  93 CALM      30.05R FOG
BIRMINGHAM     CLEAR     49  47  93 CALM      30.06S
CHATTANOOGA    CLEAR     48  46  93 CALM      30.02S
CORINTH          N/A    N/A N/A N/A MISG        N/A
DALTON         FOG       45  45 100 CALM      30.03R VSB 3/4
GADSDEN        CLEAR     43  39  87 CALM      30.04S
GOLDEN TRNGL   CLEAR     46  43  87 CALM      30.05R
HALEYVILLE     FAIR      45  45 100 CALM      30.07S
JACKSON TN     CLEAR     46  44  93 CALM      30.06S
MEMPHIS        PTCLDY    55  52  89 CALM      30.06R
NASHVILLE      CLEAR     47  45  93 CALM      30.04R
OXFORD MS      FAIR      46  46 100 CALM      30.08R
ROME           FOG       45  45 100 CALM      30.03R VSB<1/4
SAVANNAH       CLEAR     43  43 100 CALM      30.05S
TUPELO         CLEAR     50  47  89 CALM      30.05R
TUSCALOOSA     CLEAR     49  46  90 CALM      30.06R
$$

...GULF COAST WEATHER...

CITY           SKY/WX    TMP DP  RH WIND       PRES   REMARKS
GULFPORT       CLEAR     54  50  86 N3        30.03R
PASCAGOULA     CLEAR     48  48 100 N3        30.04R
MOBILE         PTCLDY    53  50  89 N5        30.04R
GULF SHORES    SUNNY     51  50  97 CALM      30.02S
PENSACOLA      PTCLDY    54  52  93 NW3       30.02R
DESTIN         CLEAR     62  53  72 N6        30.02R
PANAMA CITY    CLEAR     61  56  84 N5        30.00R
APPALACHICOLA  PTCLDY    65  60  84 NE7       29.98R
$$



USA.gov is the U.S. government's official web portal to all federal, state and local government web resources and services.